Regional Weather Roundup
Issued by NWS

Home | Current Version | Previous Version | Text Only | Print | Product List | Glossary Off
Versions: 1 2 3 4 5 6 7 8 9 10 11 12 13 14 15 16 17 18 19 20 21 22 23 24 25 26 27 28 29 30 31 32 33 34 35 36 37 38 39 40 41 42 43 44 45 46 47 48 49 50

000
ASUS43 KDMX 212101
RWRIA

WEATHER ROUNDUP FOR IOWA
NATIONAL WEATHER SERVICE DES MOINES IA
300 PM CST SUN JAN 21 2018

NOTE: "FAIR" INDICATES FEW OR NO CLOUDS BELOW 12,000 FEET WITH NO
SIGNIFICANT WEATHER AND/OR OBSTRUCTIONS TO VISIBILITY.

* - THESE STATIONS ARE NOT NWS STATIONS...THUS NOT UNDER NWS
QUALITY CONTROL.  THEY ALSO DO NOT REPORT WEATHER SUCH
AS PRECIPITATION OR FOG.

IAZ001>003-012>014-020>022-031>034-043>046-212200-
   NORTHWEST IOWA

CITY           SKY/WX    TMP DP  RH WIND       PRES   REMARKS
CARROLL *      MIX PCPN  37  36  93 NE17      29.76F VSB 1   WCI  28
CHEROKEE *     CLOUDY    38  34  84 NE13G20   29.78F WCI  31
DENISON *      LGT RAIN  37  37 100 NE14      29.76F WCI  29
LE MARS *      CLOUDY    41  30  65 NE16G26   29.79S
ORANGE CITY *  CLOUDY    41  30  65 NE9G16    29.80F
SHELDON *      CLOUDY    39  30  70 NE18G25   29.80F WCI  30
SIOUX CITY     CLOUDY    40  31  70 NE14      29.79S WCI  32
SPENCER        CLOUDY    40  30  67 NE17      29.83F WCI  31
STORM LAKE *   CLOUDY    36  36 100 NE20      29.78F FOG     WCI  25
$$

IAZ055>058-069>071-079>083-090>094-212200-
   SOUTHWEST IOWA

CITY           SKY/WX    TMP DP  RH WIND       PRES   REMARKS
ATLANTIC *     FOG       39  39 100 NE10G16   29.73S VSB 1/2 WCI  32
AUDUBON *      DRIZZLE   39  37  93 NE14      29.75F WCI  31
CLARINDA *     CLOUDY    48  48 100 N7          N/A  FOG
COUNCIL BLFS * FOG       39  39 100 NE10      29.70F VSB 1/4 WCI  32
CRESTON *      FOG       43  43 100 NE12      29.73S VSB<1/4
HARLAN  *      CLOUDY    39  39 100 NE10      29.76S FOG     WCI  32
LAMONI         CLOUDY    53  49  86 SE3       29.71S
RED OAK *      FOG       43  43 100 NE9       29.71S VSB<1/4
SHENANDOAH *   CLOUDY    46  46 100 NE9       29.69F FOG
$$

IAZ047>049-059>061-072>074-084-212200-
   CENTRAL IOWA

CITY           SKY/WX    TMP DP  RH WIND       PRES   REMARKS
AMES           CLOUDY    40  40 100 NE5       29.78R FOG
ANKENY *       FOG       41  39  93 E7        29.78R VSB 1/2
BOONE *        FOG       39  39 100 NE10      29.77R VSB 1/2 WCI  32
CHARITON *     PTSUNNY   46  46 100 E6        29.74R
DES MOINES     FOG       41  40  96 E8        29.76R VSB 1/2
GRINNELL*      FOG       40  39  97 E13       29.77F VSB 1/2 WCI  32
KNOXVILLE *    FOG       43  43 100 E9        29.74R VSB 1/2
MARSHALLTOWN   CLOUDY    40  40 100 E12       29.77F FOG     WCI  33
NEWTON *       FOG       41  39  93 E9        29.76S VSB 3/4
PELLA *        FOG       42  41  98 E7        29.77S VSB 3/4
$$

IAZ004>006-015-016-023>025-035-036-212200-
   NORTH CENTRAL IOWA

CITY           SKY/WX    TMP DP  RH WIND       PRES   REMARKS
ALGONA *       CLOUDY    36 N/A N/A NE13      29.84S HAZE    WCI  27
CLARION *      CLOUDY    36  36 100 NE15      29.81S FOG     WCI  26
ESTHERVILLE    CLOUDY    37  33  85 NE15      29.84F WCI  28
FORT DODGE *   LGT RAIN  35  34  96 N10       29.81R FOG     WCI  27
MASON CITY     CLOUDY    37  33  85 N12       29.85R FOG     WCI  29
FOREST CITY *  CLOUDY    37  34  87 NE7       29.85R WCI  32
WEBSTER CITY * LGT RAIN  36  36 100 N12       29.79R VSB 3/4 WCI  27
IOWA FALLS *   DRZL/FOG  37  37  98 NE10      29.79F VSB 1   WCI  30
$$

IAZ007>011-017>019-026>030-037>042-050>054-066-212200-
   NORTHEAST IOWA

CITY           SKY/WX    TMP DP  RH WIND       PRES   REMARKS
CEDAR RAPIDS   CLOUDY    42  40  92 E9        29.79S FOG
CHARLES CITY * CLOUDY    37  37 100 NE10      29.84R FOG     WCI  30
CLINTON *      LGT RAIN  41  40  96 E12       29.83F VSB 1/4
DECORAH *      CLOUDY    36  36 100 NE6       29.85R FOG     WCI  31
DUBUQUE        CLOUDY    38  36  92 NE8       29.83F FOG     WCI  32
MONTICELLO *   CLOUDY    41  39  93 E6        29.82S FOG
OELWEIN *      MIX PCPN  37  37 100 E12       29.82S VSB 3/4 WCI  30
WATERLOO       CLOUDY    38  37  97 E7        29.82S FOG     WCI  33
$$

IAZ064-065-067-068-078-212200-
   EAST CENTRAL IOWA

CITY           SKY/WX    TMP DP  RH WIND       PRES   REMARKS
DAVENPORT      LGT RAIN  42  40  92 E9        29.84S VSB 3/4
IOWA CITY      LGT RAIN  43  40  89 NE6       29.82S FOG
MT. PLEASANT * CLOUDY    48  45  87 CALM      29.79R
MUSCATINE *    CLOUDY    43  43 100 NE5       29.81S FOG
QUAD CITIES    FOG       44  43  96 E7        29.81F VSB 1
$$

IAZ062-063-075>077-085>089-095>099-212200-
   SOUTHEAST IOWA

CITY           SKY/WX    TMP DP  RH WIND       PRES   REMARKS
BURLINGTON     CLOUDY    54  48  80 S5        29.78F
FAIRFIELD *    CLOUDY    46  43  87 E7        29.77S
FORT MADISON * CLOUDY    55  52  88 SE5       29.79S
KEOKUK *       CLOUDY    59  52  77 S6        29.77F
OTTUMWA        CLOUDY    47  43  86 E8        29.76S
WASHINGTON *   CLOUDY    43  43 100 E7        29.81R FOG
$$

ABBREVIATIONS USED IN REMARKS
   TC - TEMPERATURES IN CELSIUS
  WCI - WIND CHILL INDEX
   HX - HEAT INDEX
  VSB - VISIBILITY
$$





USA.gov is the U.S. government's official web portal to all federal, state and local government web resources and services.